Starlink 3045

operational
NORAD ID: 49173 Int'l Des: 2021-082 Owner: SPXS Country: US Constellation: starlink
LEOCIRCULAR

Über Starlink 3045

Beschreibung wird geladen...

Live-Position

3D-Globus wird geladen...

Nächste Überflüge

Höhenverlauf

Altitude vs Time

uPlot chart will show altitude changes over time

Zweizeiliger Elementsatz

1 49173U 21082AV 26062.61383440 -.00030744 00000-0 -25970-2 0 9997
2 49173 69.9982 289.7672 0004875 212.5398 147.5461 14.98071528245569
Epoch: 3. März 2026 • Age: 26 hours

Aktueller Status

Höhe 596.0 km
Geschwindigkeit 7.56 km/s
Subsatellitenpunkt -68.65°S, 8.03°W
Startdatum 14. Sept. 2021
Alter 4.4 years
Typ internet

Technische Details

Klassifizierung Payload
Masse 297.00 kg
Trockenmasse 275.00 kg
Gesamtmasse 297.00 kg
Länge 0.20 m
Durchmesser 2.80 m
Spannweite 9.00 m
Form Box + pan
Hersteller SPXS
Bus-Typ Starlink
Phasenstatus In Orbit
Besitzer/Staat SPXS/US

Große Konstellationen

Loading constellations...